Regional Weather Roundup
Issued by NWS

Home | Current Version | Previous Version | Graphics & Text | Print | Product List | Glossary On
Versions: 1 2 3 4 5 6 7 8 9 10 11 12 13 14 15 16 17 18 19 20 21 22 23 24 25 26 27 28 29 30 31 32 33 34 35 36 37 38 39 40 41 42 43 44 45 46 47 48 49 50
000
ASUS45 KBOU 181707
RWRCO

WEATHER ROUNDUP FOR COLORADO
NATIONAL WEATHER SERVICE DENVER/BOULDER CO
1000 AM MST WED JAN 18 2017

NOTE: "FAIR" INDICATES FEW OR NO CLOUDS BELOW 12000 FEET WITH NO
SIGNIFICANT WEATHER AND/OR OBSTRUCTIONS TO VISIBILITY.

COZ001>005-013-030-031-181800-
...NORTHWEST COLORADO...

CITY           SKY/WX    TMP DP  RH WIND       PRES   REMARKS
CRAIG          CLOUDY     5   3  91 CALM      30.17R FOG
HAYDEN         FAIR      16  10  79 E12       30.13S WCI   3
MEEKER         FAIR      18  15  88 SW3       30.14S
MOUNT WERNER   NOT AVBL
STEAMBOAT SPGS FAIR      11   8  88 CALM      30.13F
WALDEN           N/A    N/A N/A N/A CALM      30.12S
$$

COZ006>008-011-181800-
...WEST CENTRAL VALLEYS...

CITY           SKY/WX    TMP DP  RH WIND       PRES   REMARKS
GRAND JUNCTION FAIR      34  28  79 CALM      30.16R
MONTROSE       FAIR      35  23  61 CALM      30.16R
EAGLE          CLOUDY    27  19  74 CALM      30.20R
RIFLE          CLOUDY    31  24  75 CALM      30.16S
DELTA          FAIR      36  30  78 W3        30.16R
NUCLA          FAIR      32  25  74 CALM      30.18S
$$

COZ017>023-064>068-181800-
...SOUTHWEST COLORADO...

CITY           SKY/WX    TMP DP  RH WIND       PRES   REMARKS
DURANGO        PTSUNNY   30  22  72 SW5       30.11S WCI  25
CORTEZ         FAIR      35  27  72 NE3       30.15R
PAGOSA SPRINGS CLOUDY    33  26  75 SW3       30.10S
TELLURIDE      FAIR      22  12  66 E3        30.12S
WOLF CREEK PAS   N/A     16  16 100 SW3       30.12S
$$

COZ009-010-012-014-032>034-037-058>063-181800-
...CENTRAL COLORADO...

CITY           SKY/WX    TMP DP  RH WIND       PRES   REMARKS
ASPEN          FAIR      22  10  60 CALM      30.11R
BUENA VISTA    FAIR      13   4  68 CALM      30.05F
COPPER MTN     NOT AVBL
BERTHOUD PASS  NOT AVBL
COTTONWOOD PAS FAIR      28  10  47 CALM      30.03S
GUNNISON       CLOUDY    24  16  71 NE7       30.14S WCI  16
KREMMLING      CLOUDY    21  18  86 CALM      30.19S
LEADVILLE      FAIR      22   5  48 CALM      30.05F
MONARCH PASS   FAIR      18  12  79 MISG      30.17S
SALIDA         FAIR      26  12  54 N8        30.13F WCI  18
SUNLIGHT       FAIR      19  14  79 CALM      30.14R HAZE
WILKERSON PASS FAIR      30 -18  11 NE6       30.07S WCI  24
$$

COZ069>075-181800-
...SAN LUIS VALLEY/SANGRE DE CRISTO MOUNTAINS...

CITY           SKY/WX    TMP DP  RH WIND       PRES   REMARKS
ALAMOSA        CLOUDY    27  23  85 N3        30.10S
LA VETA PASS   FOG       21  19  93 NE32      30.01S VSB 1   WCI   2
SAGUACHE       FAIR      28  18  64 N7        30.10S WCI  21
$$

COZ035-036-038>040-181800-
...NORTHERN COLORADO FRONT RANGE...

CITY           SKY/WX    TMP DP  RH WIND       PRES   REMARKS
DENVER INTL AP FAIR      37  17  44 SW6       29.92S
DMNS CITY PARK   N/A     39  10  30 SE8G14    29.91F
AURORA         MOSUNNY   37  13  37 S12       29.92F
FRONT RANGE AP MOSUNNY   39  16  38 S7        29.93S
ERIE MUNI ARPT FAIR      37  21  53 CALM      29.91F
BOULDER MUN AP FAIR      37  18  44 CALM      29.90F
CENTENNIAL     FAIR      36  13  38 S3        29.92F
BROOMFIELD     MOSUNNY   37  14  38 CALM      29.92F
FORT COLLINS   FAIR      34  21  60 N5        29.92S WCI  30
LONGMONT       FAIR      40  21  46 CALM      29.93S
$$

COZ041-046-047-076>085-087-088-181800-
...PIKES PEAK/PALMER DIVIDE AND SOUTHERN FOOTHILLS...

CITY           SKY/WX    TMP DP  RH WIND       PRES   REMARKS
COLO. SPRINGS  FAIR      50   9  19 N7        29.93S
A. F. ACADEMY  FAIR      43  17  35 CALM      29.92F
SCHRIEVER AFB  NOT AVBL
ELLICOTT       FAIR     N/A N/A N/A NE7       29.90F
FALCON         FAIR      46  -1  13 N7        29.94F
FORT CARSON    NOT AVBL
LIMON          FAIR      39  27  62 N3        29.93S
MONUMENT HILL  FAIR      37  12  35 W5        29.96S
TRINIDAD       FAIR      32  21  64 W9        29.94S WCI  24
$$

COZ042>045-048>051-090-091-181800-
...NORTHEAST COLORADO...

CITY           SKY/WX    TMP DP  RH WIND       PRES   REMARKS
GREELEY ARPT   FAIR      34  28  79 CALM      29.93F
AKRON          FAIR      32  20  61 W14       29.91S WCI  22
BURLINGTON     FAIR      33  27  78 W8        29.92F WCI  26
WRAY           NOT AVBL
STERLING       FAIR      28  23  80 S10       29.91S WCI  19
HOLYOKE        FAIR      34  28  80 W6        29.91F WCI  29
FORT MORGAN    FAIR      29  24  79 W13       29.92F WCI  19
$$

COZ086-089-092>099-181800-
...SOUTHEAST COLORADO...

CITY           SKY/WX    TMP DP  RH WIND       PRES   REMARKS
PUEBLO         FAIR      33  30  88 W5        29.92F WCI  29
LA JUNTA       FAIR      23  19  85 S8        29.95R WCI  14
LAMAR          FAIR      24  22  91 W7        29.95F WCI  16
SPRINGFIELD      N/A     34  32  92 NE6       29.95R WCI  29
$$



USA.gov is the U.S. government's official web portal to all federal, state and local government web resources and services.